Regional Weather Roundup
Issued by NWS

Home | Current Version | Previous Version | Graphics & Text | Print | Product List | Glossary On
Versions: 1 2 3 4 5 6 7 8 9 10 11 12 13 14 15 16 17 18 19 20 21 22 23 24 25 26 27 28 29 30 31 32 33 34 35 36 37 38 39 40 41 42 43 44 45 46 47 48 49 50
000
ASUS45 KBOU 221910
RWRCO

WEATHER ROUNDUP FOR COLORADO
NATIONAL WEATHER SERVICE PUEBLO CO
1200 PM MST THU FEB 22 2018

NOTE: "FAIR" INDICATES FEW OR NO CLOUDS BELOW 12000 FEET WITH NO
SIGNIFICANT WEATHER AND/OR OBSTRUCTIONS TO VISIBILITY.

COZ001>005-013-030-031-222000-
...NORTHWEST COLORADO...

CITY           SKY/WX    TMP DP  RH WIND       PRES   REMARKS
CRAIG          MOSUNNY   23  12  62 CALM      29.95F
HAYDEN         MOSUNNY   18  12  77 CALM      29.94F
MEEKER         CLOUDY    25  18  74 VRB3      29.92F
RABBIT EARS PA NOT AVBL
STEAMBOAT SPGS CLOUDY    21  11  65 CALM      29.91F
WALDEN         PTSUNNY   21   9  58 SW6       29.87S WCI  14
$$

COZ006>008-011-222000-
...WEST CENTRAL VALLEYS...

CITY           SKY/WX    TMP DP  RH WIND       PRES   REMARKS
GRAND JUNCTION LGT SNOW  29  28  96 SE9       29.99F FOG     WCI  20
MONTROSE       CLOUDY    28  24  85 NE5       30.01S WCI  23
EAGLE          CLOUDY    30  20  66 W10       29.92F WCI  21
RIFLE          CLOUDY    28  21  75 CALM      29.96F
DELTA          NOT AVBL
NUCLA          NOT AVBL
$$

COZ017>023-064>068-222000-
...SOUTHWEST COLORADO...

CITY           SKY/WX    TMP DP  RH WIND       PRES   REMARKS
DURANGO        CLOUDY    28  19  69 W18       30.01S WCI  15
CORTEZ         PTSUNNY   35   8  32 SW16G24   30.03S WCI  25
PAGOSA SPRINGS LGT SNOW  26  19  73 SW10G17   29.98F WCI  16
TELLURIDE      CLOUDY    21   8  57 S5        29.92F WCI  15
WOLF CREEK PAS CLOUDY     9   7  92 MISG      29.87F
$$

COZ009-010-012-014-032>034-037-058>063-222000-
...CENTRAL COLORADO...

CITY           SKY/WX    TMP DP  RH WIND       PRES   REMARKS
ASPEN          CLOUDY    25  16  68 N9        29.86S WCI  15
BUENA VISTA    LGT SNOW  27  20  75 NW3       29.84F
COPPER MTN     SNOW      14   7  73 W17       29.76F VSB 1/2 WCI  -3
BERTHOUD PASS  SNOW       5  -6  61 NW8       29.75F VSB 1/2 WCI  -8
COTTONWOOD PAS LGT SNOW  27  21  80 CALM      29.82F VSB 3/4
GUNNISON       LGT SNOW  25  16  68 W9        29.91R WCI  15
KREMMLING      MOSUNNY   30  14  51 E7        29.89F WCI  23
LEADVILLE      LGT SNOW  16  11  80 S8        29.79S WCI   5
MONARCH PASS   HVY SNOW   9   5  85 W36       29.88F VSB<1/4 WCI -16
SALIDA         PTSUNNY   28  24  84 E7        29.93F WCI  20
SUNLIGHT       SNOW      12   9  85 SW9G18    29.85S VSB 1/4 WCI   0
WILKERSON PASS MOSUNNY  N/A N/A N/A SW8G18    29.81F
$$

COZ069>075-222000-
...SAN LUIS VALLEY/SANGRE DE CRISTO MOUNTAINS...

CITY           SKY/WX    TMP DP  RH WIND       PRES   REMARKS
ALAMOSA        MOSUNNY   36  11  35 SW25G37   29.91S
DEL NORTE      FAIR      30  12  46 W24G31    29.89F WCI  17
LA VETA PASS   CLOUDY    21  16  79 S30G45    29.93F HAZE    WCI   3
SAGUACHE       NOT AVBL
$$

COZ035-036-038>040-222000-
...NORTHERN COLORADO FRONT RANGE...

CITY           SKY/WX    TMP DP  RH WIND       PRES   REMARKS
DENVER INTL AP PTSUNNY   22  14  71 NW6       29.93F WCI  14
DMNS CITY PARK NOT AVBL
AURORA         PTSUNNY   25  16  69 N8        29.91F WCI  16
FRONT RANGE AP NOT AVBL
ERIE MUNI ARPT FAIR      21  13  71 CALM      30.01F
BOULDER MUN AP PTSUNNY   23  14  68 NE5       29.94F WCI  17
CENTENNIAL     PTSUNNY   27  15  61 CALM      29.90F
BROOMFIELD     NOT AVBL
LOVELAND       MOSUNNY   24  15  68 NE7       29.96F WCI  16
LONGMONT       FAIR      28  14  55 CALM      29.97F
$$

COZ041-046-047-076>085-087-088-222000-
...PIKES PEAK/PALMER DIVIDE AND SOUTHERN FOOTHILLS...

CITY           SKY/WX    TMP DP  RH WIND       PRES   REMARKS
COLO. SPRINGS  MOSUNNY   23  16  74 CALM      29.88F
A. F. ACADEMY  MOSUNNY   26  16  66 E3        29.85F
SCHRIEVER AFB  NOT AVBL
CHEYENNE MTN   NOT AVBL
ELLICOTT         N/A    N/A N/A N/A CALM      29.88F
FALCON         FAIR      27  17  65 CALM      29.86F
FORT CARSON    SUNNY     26  17  69 CALM      29.88F
LIMON          MOSUNNY   30  14  51 VRB7      29.92F WCI  23
MONUMENT HILL  SUNNY     23  16  74 CALM      29.87F
CANON CITY     SUNNY     30  18  59 SW5       29.91F WCI  25
WALSENBURG     FAIR      45  16  31 SW25G37   29.88F
TRINIDAD       PTSUNNY   42  18  37 VRB7G20   29.89F
$$

COZ042>045-048>051-090-091-222000-
...NORTHEAST COLORADO...

CITY           SKY/WX    TMP DP  RH WIND       PRES   REMARKS
GREELEY ARPT   PTSUNNY   28  16  60 W5        29.99F WCI  23
AKRON          CLOUDY    23  14  68 CALM      29.96F
BURLINGTON     SUNNY     26  16  65 VRB7      30.02F WCI  18
WRAY           FAIR      32  12  43 S9        30.05F WCI  24
YUMA           NOT AVBL
STERLING       CLOUDY    23  18  80 S3        30.01F
HOLYOKE        FAIR      32  14  47 S3        30.04F
FORT MORGAN    MOCLDY    27  13  55 E5        29.97F WCI  22
$$

COZ086-089-092>099-222000-
...SOUTHEAST COLORADO...

CITY           SKY/WX    TMP DP  RH WIND       PRES   REMARKS
PUEBLO         SUNNY     30  17  58 NW6       29.94F WCI  24
LA JUNTA       SUNNY     30  16  56 VRB3      29.98F
LAMAR          SUNNY     40  13  33 S8        29.99F
SPRINGFIELD      N/A     47  17  30 S22       29.95F
$$




USA.gov is the U.S. government's official web portal to all federal, state and local government web resources and services.